Weather History for Reno - Stead, NV

Change the Weather History Date:

Sunday, March 30, 2014

  Actual Average (KRNO) Record (KRNO)
Temperature  
Mean Temperature 39 °F 48 °F  
Max Temperature 46 °F 60 °F 82 °F (1966)
Min Temperature 32 °F 35 °F 15 °F (1897)
Degree Days  
Heating Degree Days 26 17  
Month to date heating degree days 580  
Since 1 July heating degree days 4218  
Cooling Degree Days 0 0  
Month to date cooling degree days 0  
Year to date cooling degree days 0  
Moisture  
Dew Point 26 °F    
Average Humidity 68    
Maximum Humidity 100    
Minimum Humidity 32    
Precipitation  
Precipitation 0.03 in 0.01 in 0.56 in (1958)
Month to date precipitation 0.74  
Year to date precipitation 2.79  
Snow  
Snow 0.00 in 0.10 in 2.50 in (1958)
Month to date snowfall 2.0  
Since 1 July snowfall 21.0  
Snow Depth -    
Sea Level Pressure  
Sea Level Pressure 29.96 in    
Wind  
Wind Speed 8 mph (WNW)    
Max Wind Speed 18 mph    
Max Gust Speed 26 mph    
Visibility 9 miles    
Events Rain , Snow    
T = Trace of Precipitation, MM = Missing Value Source: NWS Daily Summary

Daily Weather History Graph

Daily Weather History Graph

Search for Another Location

Airport:

Trip Planner

Search our weather history database for the weather conditions in past years. The results will help you decide how hot, cold, wet, or windy it might be!

Date:

Astronomy

Mar. 30, 2014 Rise Set
Actual Time 6:46 AM PDT 7:21 PM PDT
Civil Twilight 6:19 AM PDT 7:48 PM PDT
Nautical Twilight 5:47 AM PDT 8:20 PM PDT
Astronomical Twilight 5:14 AM PDT 8:53 PM PDT
Moon 6:35 AM PDT (3/30) 7:39 PM PDT (3/30)
Length of Visible Light 13h 29m
Length of Day
12h 34m
New Moon, 0% of the Moon is Illuminated
Mar 30
New Moon
Apr 7
First Quarter
Apr 15
Full
Apr 22
Last Quarter
Apr 28
New

Hourly Weather History & Observations

Time (PDT) Temp. Windchill Dew Point Humidity Pressure Visibility Wind Dir Wind Speed Gust Speed Precip Events Conditions
12:15 AM 35.6 °F 32.8 °F 32.0 °F 87% 29.91 in 5.0 mi NW 3.5 mph - N/A Snow Light Snow
12:35 AM 32.0 °F 27.5 °F 32.0 °F 100% 29.90 in 3.0 mi NNE 4.6 mph - 0.01 in Snow Light Snow
12:55 AM 32.0 °F - 32.0 °F 100% 29.90 in 3.0 mi Calm Calm - 0.01 in Snow Light Snow
1:15 AM 32.0 °F - 32.0 °F 100% 29.89 in 3.0 mi Calm Calm - N/A Snow Light Snow
1:35 AM 32.0 °F - 32.0 °F 100% 29.90 in 4.0 mi Calm Calm - 0.01 in Snow Light Snow
1:55 AM 32.0 °F 27.5 °F 32.0 °F 100% 29.90 in 2.0 mi NW 4.6 mph - 0.01 in Snow Light Snow
2:15 AM 32.0 °F 25.6 °F 32.0 °F 100% 29.89 in 4.0 mi North 6.9 mph - N/A Snow Light Snow
2:30 AM 32.0 °F 25.6 °F 32.0 °F 100% 29.89 in 8.0 mi North 6.9 mph - N/A Snow Light Snow
2:55 AM 32.0 °F 26.4 °F 32.0 °F 100% 29.89 in 5.0 mi NNW 5.8 mph - N/A Snow Light Snow
3:15 AM 32.0 °F - 30.2 °F 93% 29.88 in 10.0 mi Calm Calm - N/A   Overcast
3:35 AM 32.0 °F - 30.2 °F 93% 29.89 in 10.0 mi Calm Calm - N/A   Overcast
3:55 AM 32.0 °F 23.0 °F 28.4 °F 87% 29.89 in 10.0 mi NNW 11.5 mph - N/A   Overcast
4:15 AM 32.0 °F 20.8 °F 30.2 °F 93% 29.89 in 3.0 mi NNW 17.3 mph - N/A Snow Light Snow
4:35 AM 32.0 °F 21.6 °F 30.2 °F 93% 29.89 in 2.0 mi NNW 15.0 mph - N/A Snow Light Snow
4:55 AM 32.0 °F 24.2 °F 30.2 °F 93% 29.90 in 3.0 mi NW 9.2 mph - N/A Snow Light Snow
5:15 AM 32.0 °F 24.2 °F 30.2 °F 93% 29.90 in 3.0 mi NW 9.2 mph - 0.01 in Snow Light Snow
5:35 AM 32.0 °F 23.0 °F 30.2 °F 93% 29.91 in 8.0 mi North 11.5 mph - 0.01 in Rain Light Rain
5:55 AM 32.0 °F 23.0 °F 30.2 °F 93% 29.92 in 10.0 mi North 11.5 mph - 0.01 in Rain Light Rain
6:15 AM 32.0 °F 24.2 °F 30.2 °F 93% 29.92 in 10.0 mi NNW 9.2 mph - N/A Rain Light Rain
6:35 AM 32.0 °F 23.6 °F 28.4 °F 87% 29.92 in 10.0 mi NNW 10.4 mph - N/A   Overcast
6:55 AM 32.0 °F 26.4 °F 28.4 °F 87% 29.93 in 10.0 mi WNW 5.8 mph - N/A   Overcast
7:15 AM 32.0 °F - 28.4 °F 87% 29.94 in 10.0 mi North - - N/A   Mostly Cloudy
7:35 AM 32.0 °F 22.5 °F 28.4 °F 87% 29.95 in 10.0 mi West 12.7 mph - N/A   Mostly Cloudy
7:55 AM 32.0 °F 21.6 °F 28.4 °F 87% 29.95 in 10.0 mi WNW 15.0 mph 18.4 mph N/A   Overcast
8:15 AM 32.0 °F 24.2 °F 28.4 °F 87% 29.97 in 10.0 mi WNW 9.2 mph - N/A   Overcast
8:35 AM 32.0 °F 23.6 °F 28.4 °F 87% 29.97 in 10.0 mi NW 10.4 mph - N/A   Overcast
8:55 AM 35.6 °F 28.6 °F 30.2 °F 81% 29.97 in 10.0 mi WNW 9.2 mph - N/A   Partly Cloudy
9:15 AM 35.6 °F 29.9 °F 28.4 °F 75% 29.98 in 10.0 mi NW 6.9 mph - N/A   Clear
9:35 AM 35.6 °F 28.6 °F 28.4 °F 75% 29.99 in 10.0 mi WNW 9.2 mph - N/A   Partly Cloudy
9:55 AM 35.6 °F 27.5 °F 26.6 °F 70% 29.99 in 10.0 mi NW 11.5 mph - N/A   Mostly Cloudy
10:15 AM 35.6 °F 28.6 °F 24.8 °F 65% 29.99 in 10.0 mi NW 9.2 mph - N/A   Scattered Clouds
10:35 AM 37.4 °F 30.3 °F 26.6 °F 65% 29.99 in 10.0 mi WNW 10.4 mph - N/A   Scattered Clouds
10:55 AM 37.4 °F 30.3 °F 26.6 °F 65% 29.99 in 10.0 mi WNW 10.4 mph - N/A   Mostly Cloudy
11:15 AM 39.2 °F 32.5 °F 24.8 °F 56% 29.99 in 10.0 mi WNW 10.4 mph - N/A   Overcast
11:35 AM 39.2 °F 33.0 °F 26.6 °F 61% 30.00 in 10.0 mi WNW 9.2 mph 16.1 mph N/A   Overcast
11:55 AM 39.2 °F 31.2 °F 24.8 °F 56% 30.00 in 10.0 mi NW 13.8 mph 19.6 mph N/A   Overcast
12:15 PM 41.0 °F 33.5 °F 23.0 °F 49% 29.99 in 10.0 mi NW 13.8 mph - N/A   Scattered Clouds
12:35 PM 41.0 °F 33.1 °F 23.0 °F 49% 29.98 in 10.0 mi NW 15.0 mph 20.7 mph N/A   Clear
12:55 PM 42.8 °F 35.4 °F 24.8 °F 49% 29.98 in 10.0 mi WNW 15.0 mph 24.2 mph N/A   Clear
1:15 PM 42.8 °F 34.8 °F 23.0 °F 46% 29.98 in 10.0 mi WNW 17.3 mph 23.0 mph N/A   Scattered Clouds
1:35 PM 44.6 °F 37.2 °F 21.2 °F 39% 29.99 in 10.0 mi West 17.3 mph 24.2 mph N/A   Mostly Cloudy
1:55 PM 44.6 °F 38.1 °F 19.4 °F 37% 29.98 in 10.0 mi WNW 13.8 mph - N/A   Mostly Cloudy
2:15 PM 42.8 °F 35.1 °F 19.4 °F 39% 29.99 in 10.0 mi WNW 16.1 mph 23.0 mph N/A   Mostly Cloudy
2:35 PM 44.6 °F 37.8 °F 21.2 °F 39% 29.99 in 10.0 mi WNW 15.0 mph 24.2 mph N/A   Mostly Cloudy
2:55 PM 42.8 °F 35.4 °F 19.4 °F 39% 29.98 in 10.0 mi West 15.0 mph - N/A   Mostly Cloudy
3:15 PM 46.4 °F 41.1 °F 17.6 °F 32% 29.98 in 10.0 mi WSW 11.5 mph 20.7 mph N/A   Overcast
3:35 PM 44.6 °F 37.4 °F 17.6 °F 34% 29.98 in 10.0 mi WNW 16.1 mph 21.9 mph N/A   Mostly Cloudy
3:55 PM 44.6 °F 37.8 °F 17.6 °F 34% 29.98 in 10.0 mi SW 15.0 mph 26.5 mph N/A   Mostly Cloudy
4:15 PM 44.6 °F 36.9 °F 19.4 °F 37% 29.98 in 10.0 mi SW 18.4 mph - N/A   Mostly Cloudy
4:35 PM 44.6 °F 38.4 °F 21.2 °F 39% 29.98 in 10.0 mi WSW 12.7 mph 19.6 mph N/A   Mostly Cloudy
4:55 PM 42.8 °F 36.2 °F 23.0 °F 46% 29.98 in 10.0 mi West 12.7 mph - N/A   Scattered Clouds
5:15 PM 42.8 °F 36.2 °F 19.4 °F 39% 29.98 in 10.0 mi West 12.7 mph - N/A   Clear
5:35 PM 42.8 °F 35.4 °F 21.2 °F 42% 29.98 in 10.0 mi WSW 15.0 mph 18.4 mph N/A   Clear
5:55 PM 41.0 °F 34.7 °F 23.0 °F 49% 29.98 in 10.0 mi WSW 10.4 mph 19.6 mph N/A   Partly Cloudy
6:15 PM 39.2 °F 32.5 °F 26.6 °F 61% 29.98 in 10.0 mi WSW 10.4 mph - N/A   Mostly Cloudy
6:35 PM 37.4 °F 28.9 °F 28.4 °F 70% 29.98 in 10.0 mi WNW 13.8 mph 19.6 mph N/A   Mostly Cloudy
6:55 PM 37.4 °F 28.9 °F 28.4 °F 70% 29.97 in 10.0 mi West 13.8 mph - N/A   Partly Cloudy
7:15 PM 37.4 °F 31.4 °F 26.6 °F 65% 29.98 in 10.0 mi West 8.1 mph - N/A   Clear
7:35 PM 37.4 °F 32.1 °F 24.8 °F 60% 29.99 in 10.0 mi NW 6.9 mph - N/A   Mostly Cloudy
7:55 PM 37.4 °F 30.8 °F 26.6 °F 65% 30.00 in 10.0 mi North 9.2 mph - N/A   Overcast
8:15 PM 37.4 °F 33.8 °F 26.6 °F 65% 30.00 in 10.0 mi North 4.6 mph - N/A   Overcast
8:35 PM 37.4 °F 33.8 °F 24.8 °F 60% 30.01 in 10.0 mi West 4.6 mph - N/A   Overcast
8:55 PM 37.4 °F 33.8 °F 24.8 °F 60% 30.01 in 10.0 mi WSW 4.6 mph - N/A   Overcast
9:15 PM 37.4 °F - 24.8 °F 60% 30.02 in 10.0 mi Calm Calm - N/A   Overcast
9:35 PM 35.6 °F 29.9 °F 23.0 °F 60% 30.02 in 10.0 mi WSW 6.9 mph - N/A   Overcast
9:55 PM 35.6 °F 28.6 °F 21.2 °F 56% 30.02 in 10.0 mi WSW 9.2 mph - N/A   Overcast
10:15 PM 35.6 °F 29.9 °F 21.2 °F 56% 30.02 in 10.0 mi WSW 6.9 mph 17.3 mph N/A   Overcast
10:35 PM 35.6 °F 30.7 °F 21.2 °F 56% 30.01 in 10.0 mi West 5.8 mph - N/A   Overcast
10:55 PM 35.6 °F - 21.2 °F 56% 30.01 in 10.0 mi Calm Calm - N/A   Overcast
11:15 PM 35.6 °F 29.2 °F 21.2 °F 56% 30.01 in 10.0 mi SW 8.1 mph - N/A   Scattered Clouds
11:35 PM 37.4 °F 30.3 °F 19.4 °F 48% 30.00 in 10.0 mi SW 10.4 mph - N/A   Mostly Cloudy
11:55 PM 37.4 °F 31.4 °F 19.4 °F 48% 30.00 in 10.0 mi SW 8.1 mph - N/A   Overcast